Zurück zum Katalog

FENGYUN 1C DEB

LostPO
NORAD 36240·DEBRIS·🇨🇳 China

Gestartet May 10, 1999 von Taiyuan Satellite Launch Center

Loading…

Nächste Überflüge (nächste 24 Stunden)

TLE

VeraltetSource: Space-Track

Epoche: Jan 19, 2011, 00:56 UTC

1 36240U 99025DVR 11019.03930629 +.00002692 +00000-0 +74312-3 0  9993
2 36240 099.3841 106.8314 0365396 101.4675 257.3222 14.14911744114690

Verfolge FENGYUN 1C DEB in Echtzeit mit AllMySat

Download on the App Store